Society Hill, SC

7:56 AM EDT on September 27, 2016 (GMT -0400)
Darlington County Jetport

Weather History for KUDG - March, 2012

Change the Weather History Date:

Monday, March 5, 2012

  Actual Average (KFLO) Record (KFLO)
Temperature  
Mean Temperature 47 °F 53 °F  
Max Temperature 57 °F 64 °F 86 °F (1955)
Min Temperature 37 °F 41 °F 20 °F (1960)
Degree Days  
Heating Degree Days 18 13  
Month to date heating degree days 66  
Since 1 July heating degree days 2132  
Cooling Degree Days 0 0  
Month to date cooling degree days 0  
Year to date cooling degree days 6  
Moisture  
Dew Point 28 °F    
Average Humidity 47    
Maximum Humidity 75    
Minimum Humidity 25    
Precipitation  
Precipitation 0.00 in 0.11 in 1.00 in (1959)
Month to date precipitation 0.55  
Year to date precipitation 6.70  
Sea Level Pressure  
Sea Level Pressure 30.12 in    
Wind  
Wind Speed 13 mph (West)    
Max Wind Speed 29 mph    
Max Gust Speed 38 mph    
Visibility 10 miles    
Events      
T = Trace of Precipitation, MM = Missing Value Source: NWS Daily Summary

Daily Weather History Graph

Daily Weather History Graph

Search for Another Location

Airport or City:

Trip Planner

Search our weather history database for the weather conditions in past years. The results will help you decide how hot, cold, wet, or windy it might be!

Date:

Astronomy

Mar. 05, 2012 Rise Set
Actual Time 6:42 AM EST 6:19 PM EST
Civil Twilight 6:17 AM EST 6:44 PM EST
Nautical Twilight 5:48 AM EST 7:13 PM EST
Astronomical Twilight 5:19 AM EST 7:42 PM EST
Moon 3:41 PM EST (3/5) 4:34 AM EST (3/5)
Length of Visible Light 12h 26m
Length of Day
11h 36m
Waxing Gibbous, 91% of the Moon is Illuminated
Mar 5
Waxing Gibbous
Mar 8
Full
Mar 14
Last Quarter
Mar 22
New
Mar 30
First Quarter

Hourly Weather History & Observations

Time (EST) Temp. Windchill Dew Point Humidity Pressure Visibility Wind Dir Wind Speed Gust Speed Precip Events Conditions
12:15 AM 37.4 °F 32.8 °F 30.2 °F 75% 30.09 in 10.0 mi SSW 5.8 mph - N/A   Clear
12:35 AM 37.4 °F 32.1 °F 30.2 °F 75% 30.09 in 10.0 mi SSW 6.9 mph - N/A   Clear
12:55 AM 39.2 °F 34.2 °F 28.4 °F 65% 30.09 in 10.0 mi SW 6.9 mph - N/A   Clear
1:15 AM 39.2 °F 33.0 °F 28.4 °F 65% 30.09 in 10.0 mi SSW 9.2 mph - N/A   Clear
1:55 AM 37.4 °F 32.1 °F 30.2 °F 75% 30.08 in 10.0 mi SSW 6.9 mph - N/A   Clear
2:35 AM 39.2 °F 33.6 °F 28.4 °F 65% 30.07 in 10.0 mi SSW 8.1 mph - N/A   Clear
2:55 AM 37.4 °F 31.4 °F 28.4 °F 70% 30.07 in 10.0 mi SSW 8.1 mph - N/A   Clear
3:15 AM 37.4 °F 31.4 °F 28.4 °F 70% 30.06 in 10.0 mi South 8.1 mph - N/A   Clear
3:35 AM 37.4 °F 31.4 °F 28.4 °F 70% 30.05 in 10.0 mi South 8.1 mph - N/A   Clear
3:55 AM 37.4 °F 30.3 °F 30.2 °F 75% 30.05 in 10.0 mi South 10.4 mph - N/A   Clear
4:15 AM 37.4 °F 30.3 °F 28.4 °F 70% 30.04 in 10.0 mi South 10.4 mph - N/A   Clear
4:35 AM 39.2 °F 33.6 °F 26.6 °F 61% 30.02 in 10.0 mi South 8.1 mph - N/A   Clear
4:55 AM 39.2 °F 33.0 °F 28.4 °F 65% 30.02 in 10.0 mi South 9.2 mph - N/A   Clear
5:15 AM 39.2 °F 33.0 °F 30.2 °F 70% 30.01 in 10.0 mi South 9.2 mph - N/A   Clear
5:35 AM 41.0 °F 33.9 °F 26.6 °F 57% 30.01 in 10.0 mi South 12.7 mph - N/A   Clear
5:55 AM 42.8 °F 36.6 °F 28.4 °F 57% 30.01 in 10.0 mi South 11.5 mph - N/A   Partly Cloudy
6:15 AM 42.8 °F 37.0 °F 28.4 °F 57% 30.01 in 10.0 mi South 10.4 mph - N/A   Partly Cloudy
6:35 AM 44.6 °F 38.1 °F 28.4 °F 53% 30.00 in 10.0 mi South 13.8 mph - N/A   Mostly Cloudy
6:55 AM 46.4 °F 39.8 °F 28.4 °F 50% 30.00 in 10.0 mi SSW 16.1 mph 25.3 mph N/A   Mostly Cloudy
7:15 AM 46.4 °F 40.4 °F 28.4 °F 50% 30.00 in 10.0 mi SW 13.8 mph 23.0 mph N/A   Partly Cloudy
7:35 AM 46.4 °F 39.5 °F 28.4 °F 50% 30.01 in 10.0 mi SW 17.3 mph 23.0 mph N/A   Clear
7:55 AM 46.4 °F 39.5 °F 30.2 °F 53% 30.01 in 10.0 mi SSW 17.3 mph 24.2 mph N/A   Scattered Clouds
8:15 AM 46.4 °F 40.4 °F 30.2 °F 53% 30.01 in 10.0 mi SSW 13.8 mph 24.2 mph N/A   Scattered Clouds
8:35 AM 48.2 °F - 30.2 °F 50% 30.02 in 10.0 mi SW 16.1 mph - N/A   Partly Cloudy
8:55 AM 51.8 °F - 33.8 °F 50% 30.01 in 10.0 mi SW 17.3 mph 25.3 mph N/A   Clear
9:15 AM 53.6 °F - 32.0 °F 44% 30.02 in 10.0 mi WSW 19.6 mph 28.8 mph N/A   Clear
9:35 AM 55.4 °F - 33.8 °F 44% 30.03 in 10.0 mi WSW 21.9 mph 27.6 mph N/A   Clear
9:55 AM 55.4 °F - 35.6 °F 47% 30.03 in 10.0 mi West 21.9 mph 25.3 mph N/A   Clear
10:15 AM 57.2 °F - 32.0 °F 38% 30.05 in 10.0 mi West 21.9 mph 38.0 mph N/A   Clear
10:35 AM 57.2 °F - 33.8 °F 41% 30.06 in 10.0 mi West 16.1 mph 29.9 mph N/A   Scattered Clouds
10:55 AM 57.2 °F - 33.8 °F 41% 30.08 in 10.0 mi WNW 21.9 mph 31.1 mph N/A   Overcast
11:15 AM 57.2 °F - 33.8 °F 41% 30.10 in 10.0 mi WNW 26.5 mph 36.8 mph N/A   Mostly Cloudy
11:35 AM 57.2 °F - 30.2 °F 36% 30.13 in 10.0 mi WNW 19.6 mph 36.8 mph N/A   Clear
11:55 AM 57.2 °F - 28.4 °F 33% 30.14 in 10.0 mi NW 24.2 mph 33.4 mph N/A   Partly Cloudy
12:15 PM 57.2 °F - 26.6 °F 31% 30.14 in 10.0 mi WNW 28.8 mph 34.5 mph N/A   Clear
12:35 PM 57.2 °F - 26.6 °F 31% 30.16 in 10.0 mi WNW 26.5 mph 38.0 mph N/A   Clear
12:55 PM 57.2 °F - 28.4 °F 33% 30.16 in 10.0 mi WNW 18.4 mph 29.9 mph N/A   Scattered Clouds
1:15 PM 57.2 °F - 30.2 °F 36% 30.17 in 10.0 mi NW 21.9 mph 27.6 mph N/A   Mostly Cloudy
1:35 PM 57.2 °F - 24.8 °F 29% 30.18 in 10.0 mi WNW 26.5 mph 34.5 mph N/A   Partly Cloudy
1:55 PM 57.2 °F - 26.6 °F 31% 30.19 in 10.0 mi WNW 16.1 mph 26.5 mph N/A   Partly Cloudy
2:15 PM 57.2 °F - 26.6 °F 31% 30.20 in 10.0 mi NW 23.0 mph 26.5 mph N/A   Partly Cloudy
2:35 PM 57.2 °F - 26.6 °F 31% 30.20 in 10.0 mi WNW 15.0 mph 26.5 mph N/A   Partly Cloudy
2:55 PM 57.2 °F - 26.6 °F 31% 30.21 in 10.0 mi WNW 17.3 mph 28.8 mph N/A   Partly Cloudy
3:15 PM 57.2 °F - 23.0 °F 27% 30.22 in 10.0 mi NNW 21.9 mph 32.2 mph N/A   Clear
3:35 PM 57.2 °F - 21.2 °F 25% 30.23 in 10.0 mi NNW 23.0 mph 28.8 mph N/A   Clear
3:55 PM 55.4 °F - 23.0 °F 29% 30.24 in 10.0 mi NNW 16.1 mph 25.3 mph N/A   Clear
4:15 PM 55.4 °F - 24.8 °F 31% 30.25 in 10.0 mi NW 18.4 mph - N/A   Clear
4:35 PM 55.4 °F - 24.8 °F 31% 30.26 in 10.0 mi NW 18.4 mph 26.5 mph N/A   Clear
4:55 PM 55.4 °F - 24.8 °F 31% 30.27 in 10.0 mi NNW 17.3 mph 21.9 mph N/A   Clear
5:15 PM 53.6 °F - 24.8 °F 33% 30.28 in 10.0 mi NNW 15.0 mph - N/A   Clear
5:35 PM 53.6 °F - 23.0 °F 30% 30.30 in 10.0 mi NNW 16.1 mph 19.6 mph N/A   Clear
5:55 PM 51.8 °F - 23.0 °F 33% 30.32 in 10.0 mi NNW 15.0 mph - N/A   Clear
6:15 PM 51.8 °F - 23.0 °F 33% 30.34 in 10.0 mi NNW 12.7 mph - N/A   Clear
6:35 PM 50.0 °F - 21.2 °F 32% 30.36 in 10.0 mi NNW 10.4 mph - N/A   Clear
6:55 PM 48.2 °F - 24.8 °F 40% 30.36 in 10.0 mi NNW 9.2 mph - N/A   Clear
7:15 PM 46.4 °F 42.4 °F 24.8 °F 43% 30.38 in 10.0 mi North 8.1 mph - N/A   Clear
7:35 PM 44.6 °F 39.7 °F 24.8 °F 46% 30.39 in 10.0 mi North 9.2 mph - N/A   Clear
7:55 PM 46.4 °F 41.1 °F 24.8 °F 43% 30.40 in 10.0 mi North 11.5 mph - N/A   Clear
8:15 PM 46.4 °F 41.1 °F 24.8 °F 43% 30.41 in 10.0 mi North 11.5 mph - N/A   Clear
8:35 PM 44.6 °F 40.2 °F 23.0 °F 43% 30.43 in 10.0 mi North 8.1 mph - N/A   Clear
8:55 PM 44.6 °F 40.2 °F 24.8 °F 46% 30.44 in 10.0 mi North 8.1 mph - N/A   Clear
9:15 PM 44.6 °F 40.2 °F 23.0 °F 43% 30.45 in 10.0 mi NNE 8.1 mph - N/A   Clear
9:35 PM 42.8 °F 37.5 °F 21.2 °F 42% 30.45 in 10.0 mi NNE 9.2 mph - N/A   Clear
9:55 PM 42.8 °F 37.5 °F 23.0 °F 46% 30.46 in 10.0 mi NNE 9.2 mph - N/A   Clear
10:15 PM 42.8 °F 36.6 °F 24.8 °F 49% 30.47 in 10.0 mi NNE 11.5 mph - N/A   Clear
10:35 PM 42.8 °F 36.2 °F 21.2 °F 42% 30.49 in 10.0 mi NNE 12.7 mph - N/A   Clear
10:55 PM 42.8 °F 37.5 °F 21.2 °F 42% 30.50 in 10.0 mi NNE 9.2 mph - N/A   Clear
11:15 PM 41.0 °F 36.4 °F 21.2 °F 45% 30.51 in 10.0 mi NNE 6.9 mph - N/A   Clear
11:35 PM 39.2 °F 34.2 °F 21.2 °F 49% 30.52 in 10.0 mi NNE 6.9 mph - N/A   Clear
11:55 PM 39.2 °F 35.0 °F 24.8 °F 56% 30.51 in 10.0 mi NNE 5.8 mph - N/A   Clear